SCP
0 0 0 0 0 0 0 0 0 0 0 0 0 0 0 0 0 0 0 0 0 0 0 0 0 0 0 0 0 0 0 0 0 0 0 0 0 0
0 0 0 0 0 0 0 0 0 0 0 0 0 0 0 0 0 0 0 0 0 0 0 0 0 0 0 0 0 0 0 0 0 0 0 0 0 0
0 0 0 0 0 0 0 0 0 0 0 0 0 0 0 0 0 0 0 0 0 0 0 0 0 0 0 0 0 0 0 0 0 0 0 0 0 0
0 0 0 0 0 0 0 0 0 0 0 0 0 0 0 0 0 0 0 0 0 0 0 0 0 0 0 0 0 0 0 0 0 0 0 0 0 0
0 0 0 0 0 0 0 0 0 0 0 0 0 0 0 0 0 0 0 0 0 0 0 0 0 0 0 0 0 0 0 0 0 0 0 0 0 0
0 0 0 0 0 0 0 0 0 0 0 0 0 0 0 0 0 0 0 0 0 0 0 0 0 0 0 0 0 0 0 0 0 0 0 0 0 0
0 0 0 0 0 0 0 0 0 0 0 0 0 0 0 0 0 0 0 0 0 0 0 0 0 0 0 0 0 0 0 0 0 0 0 0 0 0
0 0 0 0 0 0 0 0 0 0 0 0 0 0 0 0 0 0 0 0 0 0 0 0 0 0 0 0 0 0 0 0 0 0 0 0 0 0
0 0 0 0 0 0 0 0 0 0 0 0 0 0 0 0 0 0 0 0 0 0 0 0 0 0 0 0 0 0 0 0 0 0 0 0 0 0
0 0 0 0 0 0 0 0 0 0 0 0 0 0 0 0 0 0 0 0 0 0 0 0 0 0 0 0 0 0 0 0 0 0 0 0 0 0
0 0 0 0 0 0 0 0 0 0 0 0 0 0 0 0 0 0 0 0 0 0 0 0 0 0 0 0 0 0 0 0 0 0 0 0 0 0
0 0 0 0 0 0 0 0 0 0 0 0 0 0 0 0 0 0 0 0 0 0 0 0 0 0 0 0 0 0 0 0 0 0 0 0 0 0
0 0 0 0 0 0 0 0 0 0 0 0 0 0 0 0 0 0 0 0 0 0 0 0 0 0 0 0 0 0 0 0 0 0 0 0 0 0
0 0 0 0 0 0 0 0 0 0 0 0 0 0 0 0 0 0 0 0 0 0 0 0 0 0 0 0 0 0 0 0 0 0 0 0 0 0
0 0 0 0 0 0 0 0 0 0 0 0 0 0 0 0 0 0 0 0 0 0 0 0 0 0 0 0 0 0 0 0 0 0 0 0 0 0
0 0 0 0 0 0 0 0 0 0 0 0 0 0 0 0 0 0 0 0 0 0 0 0 0 0 0 0 0 0 0 0 0 0 0 0 0 0
0 0 0 0 0 0 0 0 0 0 0 0 0 0 0 0 0 0 0 0 0 0 0 0 0 0 0 0 0 0 0 0 0 0 0 0 0 0
0 0 0 0 0 0 0 0 0 0 0 0 0 0 0 0 0 0 0 0 0 0 0 0 0 0 0 0 0 0 0 0 0 0 0 0 0 0
0 0 0 0 0 0 0 0 0 0 0 0 0 0 0 0 0 0 0 0 0 0 0 0 0 0 0 0 0 0 0 0 0 0 0 0 0 0
0 0 0 0 0 0 0 0 0 0 0 0 0 0 0 0 0 0 0 0 0 0 0 0 0 0 0 0 0 0 0 0 0 0 0 0 0 0
0 0 0 0 0 0 0 0 0 0 0 0 0 0 0 0 0 0 0 0 0 0 0 0 0 0 0 0 0 0 0 0 0 0 0 0 0 0
0 0 0 0 0 0 0 0 0 0 0 0 0 0 0 0 0 0 0 0 0 0 0 0 0 0 0 0 0 0 0 0 0 0 0 0 0 0
0 0 0 0 0 0 0 0 0 0 0 0 0 0 0 0 0 0 0 0 0 0 0 0 0 0 0 0 0 0 0 0 0 0 0 0 0 0
Wind_Speed
5 5 4 4 4 4 4 3 4 5 6 6 3 1 2 3 4 3 3 5 8 10 12 14 15 16 18 19 20 21 20 20 20 20 20 20 21 21
5 6 5 4 4 4 4 4 4 5 6 5 5 3 2 2 5 4 4 6 8 11 12 14 15 16 17 19 20 20 20 20 20 20 19 19 20 20
6 6 6 6 4 4 4 4 4 4 6 6 5 4 4 4 3 3 4 5 5 11 13 14 15 15 16 18 19 19 20 20 20 20 20 20 20 20
6 6 6 6 6 5 5 5 5 5 5 7 6 5 6 5 5 5 5 5 5 8 11 13 13 14 15 16 18 18 19 19 19 20 20 20 20 20
6 7 6 6 6 5 5 5 5 7 5 5 6 5 5 5 5 5 6 4 5 6 9 11 12 13 14 15 16 17 18 19 19 20 20 20 20 20
6 7 7 7 7 7 6 6 6 6 6 6 6 5 5 6 4 5 5 4 4 4 4 5 9 12 14 14 15 16 18 19 19 19 20 19 19 19
6 7 8 9 9 8 8 6 5 5 5 5 6 5 5 4 4 4 5 4 3 3 3 4 4 5 8 11 14 15 16 18 19 19 20 19 19 19
7 7 8 9 11 14 15 13 10 8 7 6 6 6 6 5 4 4 4 4 3 2 3 3 3 4 4 5 10 13 15 16 17 18 19 19 19 18
8 7 9 11 8 6 8 12 14 16 15 9 9 9 8 7 6 6 5 5 4 2 2 3 3 3 2 3 9 12 14 15 16 17 18 18 18 17
9 9 9 9 10 7 7 7 7 9 11 11 11 11 10 8 6 6 6 6 5 4 4 3 2 2 1 1 4 9 12 14 14 15 17 17 17 16
10 10 9 8 8 8 6 7 7 7 11 14 15 14 15 14 9 5 5 5 6 4 3 3 2 1 1 0 1 4 9 11 13 13 14 15 15 14
7 7 10 9 7 7 6 6 8 7 7 9 8 10 11 12 13 9 7 7 6 5 4 3 2 2 2 1 1 2 3 7 11 12 13 15 16 10
6 6 4 2 4 7 7 7 9 7 7 8 8 7 7 7 8 9 9 9 8 6 3 3 3 3 2 2 1 1 2 3 4 6 10 14 16 12
7 6 3 2 4 7 8 10 11 8 7 8 8 8 7 7 7 8 9 10 9 8 5 4 3 4 3 3 2 2 2 3 3 4 5 9 10 9
8 9 9 10 9 9 14 15 11 8 8 9 9 8 7 7 6 6 7 7 8 8 7 7 5 4 4 4 4 3 2 2 3 4 5 6 6 7
9 10 12 14 13 12 11 9 9 9 9 9 8 7 6 5 5 5 5 5 5 5 6 6 6 6 4 4 4 4 4 4 5 5 5 5 5 6
4 6 8 8 7 7 7 8 7 8 9 9 8 7 6 6 5 5 5 5 5 5 5 4 4 3 4 4 4 5 5 4 5 6 6 5 4 5
4 8 9 8 8 7 7 7 7 7 8 8 7 7 7 6 6 5 5 5 6 6 5 5 4 3 2 0 3 6 5 5 5 6 5 5 6 5
6 9 9 9 8 7 7 7 7 7 7 7 7 7 7 6 6 6 5 5 6 6 5 6 6 6 6 5 3 4 6 6 6 5 5 4 6 7
8 9 9 8 7 7 7 7 6 6 6 6 6 6 7 6 6 6 6 7 6 5 5 6 7 7 7 6 5 4 6 7 7 7 5 3 4 5
7 7 7 6 6 6 6 6 6 6 6 6 6 6 6 6 6 6 6 8 7 6 7 7 8 9 4 4 5 4 4 4 5 6 6 5 5 5
7 6 5 5 5 5 5 5 6 6 6 5 6 6 6 6 7 8 6 6 6 6 7 6 7 7 5 6 6 6 6 5 5 8 8 4 5 7
5 5 5 5 4 4 5 6 7 6 5 5 5 5 5 6 6 6 6 6 5 6 6 6 6 6 6 6 6 6 8 8 5 4 4 9 6 2
Wind_Direction
276 279 269 275 277 273 279 277 275 285 287 296 296 228 180 186 181 217 236 242 242 234 227 224 224 221 217 213 210 208 208 207 208 209 210 210 211 214
263 267 272 269 277 286 281 277 269 269 279 288 292 283 260 239 196 224 238 245 244 240 232 227 224 220 217 213 211 208 206 206 207 207 208 208 208 210
266 267 262 261 263 273 278 275 271 267 272 279 280 284 274 270 244 237 246 235 238 237 233 228 223 220 217 213 211 209 207 207 207 207 208 207 207 209
269 268 269 269 261 256 262 268 269 268 267 274 278 281 273 260 248 238 248 251 241 235 230 226 222 218 216 214 212 210 209 209 208 207 208 208 208 209
271 271 270 270 270 264 264 267 273 275 273 273 276 274 274 266 260 252 246 243 248 240 226 223 221 217 214 212 211 211 210 210 209 208 209 208 208 208
266 267 266 264 263 262 264 257 261 269 275 274 271 267 265 262 253 250 253 235 237 243 238 228 220 216 215 210 211 211 210 210 209 208 207 207 206 206
283 275 269 266 261 257 261 261 269 271 275 279 277 276 269 270 267 261 258 252 234 222 230 227 215 212 212 215 213 212 210 209 208 206 205 204 204 204
283 280 279 270 257 245 243 246 248 254 262 269 276 278 284 290 298 300 291 278 268 230 220 236 217 219 213 207 207 207 208 208 207 204 202 202 202 202
276 276 278 279 289 275 254 246 246 246 243 248 261 268 277 287 304 304 301 296 279 266 241 255 228 226 216 211 200 201 203 204 204 203 199 198 197 197
266 264 263 265 271 272 274 266 256 251 242 237 241 249 256 261 270 280 284 287 274 250 210 234 228 210 213 197 197 200 201 200 200 199 197 193 190 189
266 266 262 260 257 248 251 260 265 265 264 254 237 238 241 247 249 264 271 275 278 262 217 208 202 185 174 184 177 195 197 196 193 190 188 184 180 176
274 270 267 261 250 230 239 255 264 269 278 287 274 258 250 247 237 232 242 253 262 263 218 191 186 172 176 180 167 171 179 188 186 182 177 173 168 168
282 290 299 293 237 233 238 250 260 276 286 280 275 266 253 245 238 227 220 227 239 245 222 192 187 182 171 158 151 159 165 162 167 172 173 170 171 172
272 280 291 227 247 248 245 251 256 264 266 266 263 259 253 247 241 234 224 219 222 234 230 208 204 187 169 165 172 162 155 154 150 150 155 164 172 174
262 279 289 273 261 254 248 249 249 247 249 253 255 255 251 248 246 246 238 226 225 227 224 212 211 195 186 173 162 162 154 156 153 150 154 164 168 161
255 270 268 259 252 254 260 247 233 237 241 248 254 257 260 257 249 241 238 226 220 224 217 202 206 199 197 178 163 169 164 160 160 160 156 159 163 166
315 285 278 273 262 250 247 245 239 232 235 242 249 253 254 251 247 241 234 225 218 215 205 191 189 193 194 177 172 173 162 159 165 161 156 156 166 170
273 271 273 273 272 267 262 259 248 240 237 235 238 243 245 244 241 236 229 223 220 216 204 183 169 167 163 230 188 172 166 163 162 164 156 154 166 174
243 260 263 265 268 269 265 262 259 250 239 235 235 236 238 239 237 233 225 222 220 215 203 184 180 185 192 195 191 190 170 159 159 166 168 160 167 171
236 250 258 261 264 267 267 265 262 258 246 237 234 234 233 233 235 232 224 219 217 210 201 191 191 195 200 189 171 176 177 164 163 168 162 127 100 100
259 257 260 264 265 266 265 266 264 258 248 238 234 231 232 232 232 232 228 221 218 208 204 201 200 191 179 150 147 149 152 156 157 160 155 144 139 143
266 272 277 278 279 276 271 268 266 262 254 244 240 233 231 231 232 230 227 220 212 208 208 199 182 177 177 181 176 160 148 132 95 95 87 86 157 169
267 277 279 278 279 279 275 270 270 268 260 249 241 236 233 231 231 230 225 219 209 208 201 189 179 179 185 183 172 160 155 152 146 133 74 28 41 51